Sioux City, IA

11:13 AM CDT on May 22, 2017 (GMT -0500)
Sioux Gateway

Weather History for KSUX - September, 2013

Change the Weather History Date:

Thursday, September 19, 2013

  Actual Average Record
Temperature  
Mean Temperature 66 °F 62 °F  
Max Temperature 77 °F 75 °F 98 °F (1948)
Min Temperature 55 °F 49 °F 29 °F (1991)
Degree Days  
Heating Degree Days 0 5  
Month to date heating degree days 12 56  
Since 1 July heating degree days 32 71  
Cooling Degree Days 1 2  
Month to date cooling degree days 119 68  
Year to date cooling degree days 920 845  
Growing Degree Days 16 (Base 50)    
Moisture  
Dew Point 60 °F    
Average Humidity 67    
Maximum Humidity 93    
Minimum Humidity 41    
Precipitation  
Precipitation 0.02 in 0.09 in 2.78 in (1923)
Month to date precipitation 1.17 1.91  
Year to date precipitation 21.30 22.45  
Snow  
Snow 0.00 in 0.00 in 0.00 in ()
Month to date snowfall 0.0 0.0  
Since 1 July snowfall 0.0 0.0  
Since 1 September snowfall 0.0 0.0  
Snow Depth 0.00 in    
Sea Level Pressure  
Sea Level Pressure 29.78 in    
Wind  
Wind Speed 12 mph (WNW)    
Max Wind Speed 33 mph    
Max Gust Speed 44 mph    
Visibility 10 miles    
Events Rain    
T = Trace of Precipitation, MM = Missing Value Source: NWS Daily Summary

Daily Weather History Graph

Daily Weather History Graph

Search for Another Location

Airport or City:

Trip Planner

Search our weather history database for the weather conditions in past years. The results will help you decide how hot, cold, wet, or windy it might be!

Date:

Astronomy

Sep. 19, 2013 Rise Set
Actual Time 7:09 AM CDT 7:27 PM CDT
Civil Twilight 6:41 AM CDT 7:55 PM CDT
Nautical Twilight 6:08 AM CDT 8:28 PM CDT
Astronomical Twilight 5:34 AM CDT 9:02 PM CDT
Moon 7:24 PM CDT (9/19) 7:21 AM CDT (9/19)
Length of Visible Light 13h 13m
Length of Day
12h 17m
Full, 100% of the Moon is Illuminated
Sep 19
Full
Sep 26
Last Quarter
Oct 4
New
Oct 11
First Quarter
Oct 18
Full

Hourly Weather History & Observations

Time (CDT) Temp. Dew Point Humidity Pressure Visibility Wind Dir Wind Speed Gust Speed Precip Events Conditions
12:52 AM 77.0 °F 66.0 °F 69% 29.64 in 10.0 mi SSE 9.2 mph - N/A   Clear
1:52 AM 77.0 °F 64.9 °F 66% 29.64 in 10.0 mi SSE 10.4 mph - N/A   Clear
2:52 AM 75.0 °F 64.0 °F 69% 29.65 in 10.0 mi SSE 10.4 mph - N/A   Clear
3:52 AM 75.0 °F 64.0 °F 69% 29.63 in 10.0 mi South 11.5 mph - N/A   Clear
4:52 AM 75.0 °F 63.0 °F 66% 29.64 in 10.0 mi SSW 10.4 mph - N/A   Clear
5:52 AM 73.9 °F 62.1 °F 66% 29.66 in 10.0 mi WSW 15.0 mph 19.6 mph N/A   Clear
6:52 AM 71.1 °F 63.0 °F 75% 29.68 in 10.0 mi West 3.5 mph - N/A   Clear
7:52 AM 70.0 °F 64.0 °F 81% 29.73 in 10.0 mi SW 4.6 mph - 0.00 in   Scattered Clouds
8:52 AM 73.0 °F 66.0 °F 79% 29.73 in 10.0 mi SW 3.5 mph - 0.00 in   Mostly Cloudy
9:52 AM 73.0 °F 64.9 °F 76% 29.69 in 10.0 mi NW 3.5 mph - 0.00 in   Partly Cloudy
10:35 AM 71.6 °F 64.4 °F 78% 29.80 in 10.0 mi West 10.4 mph 21.9 mph 0.00 in Rain Light Rain
10:52 AM 70.0 °F 64.9 °F 84% 29.79 in 10.0 mi West 11.5 mph - 0.00 in Rain Light Rain
11:44 AM 68.0 °F 66.2 °F 94% 29.83 in 9.0 mi NW 5.8 mph - 0.01 in Rain Light Rain
11:52 AM 68.0 °F 66.0 °F 93% 29.79 in 10.0 mi NNW 11.5 mph - 0.02 in Rain Light Rain
12:07 PM 68.0 °F 66.2 °F 94% 29.79 in 10.0 mi NNW 11.5 mph - 0.00 in Rain Light Rain
12:22 PM 69.8 °F 66.2 °F 88% 29.80 in 10.0 mi WNW 5.8 mph - 0.00 in Rain Light Rain
12:52 PM 71.1 °F 66.9 °F 87% 29.80 in 10.0 mi NW 9.2 mph - 0.00 in   Overcast
1:52 PM 70.0 °F 64.0 °F 81% 29.82 in 10.0 mi NW 11.5 mph - N/A   Overcast
2:52 PM 73.9 °F 61.0 °F 64% 29.80 in 10.0 mi NW 16.1 mph 21.9 mph N/A   Overcast
3:52 PM 73.9 °F 57.0 °F 55% 29.82 in 10.0 mi NNW 17.3 mph 23.0 mph N/A   Clear
4:52 PM 73.9 °F 48.9 °F 41% 29.82 in 10.0 mi NNW 21.9 mph 34.5 mph N/A   Overcast
5:52 PM 71.1 °F 46.9 °F 42% 29.83 in 10.0 mi NNW 31.1 mph 41.4 mph N/A   Mostly Cloudy
6:52 PM 66.9 °F 48.0 °F 51% 29.85 in 10.0 mi North 12.7 mph 24.2 mph 0.00 in   Mostly Cloudy
7:52 PM 63.0 °F 51.1 °F 65% 29.89 in 10.0 mi NW 17.3 mph 23.0 mph 0.00 in   Clear
8:52 PM 60.1 °F 52.0 °F 75% 29.93 in 10.0 mi NW 10.4 mph - N/A   Clear
9:52 PM 57.9 °F 53.1 °F 84% 29.95 in 10.0 mi NW 8.1 mph - N/A   Clear
10:52 PM 57.0 °F 52.0 °F 83% 29.99 in 10.0 mi WNW 6.9 mph - N/A   Clear
11:52 PM 59.0 °F 50.0 °F 72% 30.00 in 10.0 mi NW 10.4 mph - N/A   Clear